Regional Weather Roundup
Issued by NWS Bismarck, ND

Home | Current Version | Previous Version | Text Only | Print | Product List | Glossary On
Versions: 1 2 3 4 5 6 7 8 9 10 11 12 13 14 15 16 17 18 19 20 21 22 23 24 25 26 27 28 29 30 31 32 33 34 35 36 37 38 39 40 41 42 43 44 45 46 47 48 49 50
000
ASUS43 KBIS 170220
RWRBIS

NWR BROADCAST TEXT
NATIONAL WEATHER SERVICE BISMARCK ND
900 PM CDT TUE SEP 16 2014

NOTE: "FAIR" INDICATES FEW OR NO CLOUDS BELOW 12,000 FEET WITH NO
SIGNIFICANT WEATHER AND/OR OBSTRUCTIONS TO VISIBILITY.


CITY           SKY/WX    TMP DP  RH WIND       PRES   REMARKS
WILLISTON      CLEAR     50  40  68 CALM      29.91S
MINOT          CLEAR     55  44  66 N5        29.90F
MINOT AFB      CLEAR     52  47  82 S1        29.90S
BISMARCK       CLEAR     56  48  74 E7        29.92R
DICKINSON      CLEAR     55  45  68 E7        29.92S
GARRISON         N/A     57  43  59 NW6       29.91F
HETTINGER ARPT MOCLDY    57  46  66 NE7       29.94R
JAMESTOWN      CLEAR     52  47  83 NE6       29.93S
BEACH            N/A     54  46  76 S3        29.95R
CARRINGTON     FAIR      48  46  93 S7        29.94S
CROSBY         FAIR      50  46  87 S7        29.91R
HARVEY         FAIR      55  41  58 S5        29.91S
HAZEN          FAIR      46  41  81 S3        29.92S
LINTON         FAIR      55  48  76 E7        29.91S
MANDAN         FAIR      61  46  59 E7        29.93S
OAKES            N/A     57  54  88 CALM      29.92S
RUGBY          FAIR      55  46  71 NE3       29.91S
STANLEY        FAIR      55  41  58 CALM      29.92S
TIOGA          FAIR      50  37  62 CALM      29.96R
WATFORD CITY   FAIR      54  36  50 CALM      29.90S HAZE
$$

CITY           SKY/WX    TMP DP  RH WIND       PRES   REMARKS
GRAND FORKS    CLEAR     54  46  74 S7        29.92R
GRAND FORKS AF CLEAR     52  45  75 S8        29.92S
DEVILS LAKE    CLEAR     57  45  62 S5        29.90F
FARGO          CLEAR     62  45  53 SE8       29.93F
CANDO          FAIR      54  43  66 S5        29.92S
CAVALIER       FAIR      54  46  76 CALM      29.90R
GRAFTON        FAIR      55  43  62 S8        29.90S
GWINNER        CLEAR     55  52  88 E5        29.93S
LANGDON        FAIR      50  37  62 SW6       29.91S HAZE
ROLLA          FAIR      48  41  76 W6        29.93S
WALHALLA         N/A     50  48  93 CALM      29.90S
$$

CITY           SKY/WX    TMP DP  RH WIND       PRES   REMARKS
ABERDEEN       CLEAR     55  52  89 E3        29.91S
MOBRIDGE       CLEAR     60  50  69 NE8       29.88S
BUFFALO          N/A     66  47  50 NE8       29.89R
RAPID CITY     CLEAR     58  48  69 W3        29.95S
GLASGOW        CLEAR     61  42  49 SE8       29.88F
SIDNEY         CLEAR     54  41  62 NW5       29.92S
WOLF POINT     CLEAR     62  43  49 NE3       29.89S
MILES CITY     MOCLDY    71  44  37 E6        29.91S
BAKER          CLOUDY    62  47  57 CALM      29.95S
$$

CITY           SKY/WX    TMP DP  RH WIND       PRES   REMARKS
BILLINGS       MOCLDY    76  38  25 SW8       29.94S
GREAT FALLS    CLOUDY    68  45  43 S7        29.90S
REGINA         PTCLDY    63  46  55 NE2       29.88S
ESTEVAN        PTCLDY    61  43  51 S3        29.90S
$$



USA.gov is the U.S. government's official web portal to all federal, state and local government web resources and services.